WGS 10 (USA 291)

Last updated on Sat Dec 13 2025 00:02:50 GMT+0000 (Coordinated Universal Time)

1 44071U 19014A 25346.21699876 .00000056 00000+0 00000+0 0 9998 2 44071 0.0164 336.3614 0000762 326.4478 276.7910 1.00273832 24749
UTC large
Height (km)
Speed (km/s)
/
Latitude / Longitude
Inclination (degrees)
Orbital Period (minutes)
Azimuth
Elevation
Range (km)
Doppler Factor

Next 0 passes for location: London (51.5072 / 0.1276)

Sorry there are no passes over London.